Overview Statistics Trail Chart Weather Telemetry Raw packets
 

This is the latest recevied weather packets stored in our database for station/object YREN. If no packets are shown the sender has not sent any weather packets the latest 10 day(s).

<< 32 33 34 35 36 37 38 >>
Time Temp. Humidity Pressure Rain* Wind** Luminosity Snow
1787847604 6.11° C 92% 1027.6 hPa 0 mm - - -
1787846704 6.11° C 92% 1027.6 hPa 0 mm - - -
1787845803 7.78° C 93% 1027.5 hPa 0 mm - - -
1787844911 7.78° C 93% 1027.5 hPa 0 mm - - -
1787844003 6.11° C 94% 1027.7 hPa 0 mm - - -
1787843103 6.11° C 94% 1027.7 hPa 0 mm - - -
1787842204 5.56° C 93% 1027.4 hPa 0 mm - - -
1787841304 5.56° C 93% 1027.4 hPa 0 mm - - -
1787840404 6.67° C 93% 1027.4 hPa 0 mm - - -
1787839504 6.67° C 93% 1027.4 hPa 0 mm - - -
1787838603 6.11° C 91% 1027.6 hPa 0 mm - - -
1787837703 6.11° C 91% 1027.6 hPa 0 mm - - -
1787836803 7.78° C 89% 1027.5 hPa 0 mm - - -
1787835904 7.78° C 89% 1027.5 hPa 0 mm - - -
1787835004 7.22° C 92% 1027.6 hPa 0 mm - - -
1787834104 7.22° C 92% 1027.6 hPa 0 mm - - -
1787833204 7.22° C 90% 1027.6 hPa 0 mm - - -
1787832304 7.22° C 90% 1027.6 hPa 0 mm - - -
1787831404 7.78° C 90% 1027.4 hPa 0 mm - - -
1787830509 7.78° C 90% 1027.4 hPa 0 mm - - -
1787829604 8.33° C 89% 1027.4 hPa 0 mm - - -
1787828704 8.33° C 89% 1027.4 hPa 0 mm - - -
1787827804 8.89° C 84% 1027.3 hPa 0 mm - - -
1787826904 8.89° C 84% 1027.3 hPa 0 mm - - -
1787826004 10° C 83% 1027.2 hPa 0 mm - - -

* Rain latest hour (hover to see other rain measurements)
** Current wind speed in m/s (hover to see current wind gust speed)